Regional Weather Roundup
Issued by NWS

Home | Current Version | Previous Version | Text Only | Print | Product List | Glossary On
Versions: 1 2 3 4 5 6 7 8 9 10 11 12 13 14 15 16 17 18 19 20 21 22 23 24 25 26 27 28 29 30 31 32 33 34 35 36 37 38 39 40 41 42 43 44 45 46 47 48 49 50
000
ASUS42 KFFC 212003
RWRGA
WEATHER ROUNDUP FOR GEORGIA
NATIONAL WEATHER SERVICE PEACHTREE CITY GA
400 PM EDT SUN SEP 21 2014

NOTE: "FAIR" INDICATES FEW OR NO CLOUDS BELOW 12,000 FEET WITH NO
SIGNIFICANT WEATHER AND/OR OBSTRUCTIONS TO VISIBILITY.

* = USE WITH CAUTION. THE STATIONS MARKED WITH AN ASTERISK MAY NOT
REPORT WEATHER SUCH AS PRECIPITATION, FOG, OR THUNDER AND ARE NOT
QUALITY CONTROLLED BY NWS.

THE REMARK "TC" DENOTES TEMPERATURE READING IN DEGREES CELSIUS.

GAZ001>058-212100-
NORTH GEORGIA

CITY           SKY/WX    TMP DP  RH WIND       PRES   REMARKS
ATLANTA        MOSUNNY   87  60  40 N14       29.97F
ATHENS         MOSUNNY   86  61  42 W10       29.94F
CHAMBLEE       SUNNY     86  61  42 W10       29.96F
PEACHTREE CITY MOSUNNY   87  60  40 W8        29.98F
ROME           MOSUNNY   88  63  43 W8G18     29.94F
WEST ATLANTA   SUNNY     86  61  42 W8        29.96F
GAINESVILLE    SUNNY     84  61  45 W8        29.98F
CARTERSVILLE   MOSUNNY   87  62  43 VRB5      29.96F


CITY           SKY/WX    TMP DP  RH WIND       PRES   REMARKS
DALTON*        PTSUNNY   82  64  54 NW5       29.94F
LAWRENCEVILLE* MOSUNNY   82  59  44 W9        29.96F
MARIETTA       MOSUNNY   86  64  48 W10       29.97F
KENNESAW*      MOSUNNY   84  61  45 W14       29.98F
$$

GAZ059>098-102>109-212100-
CENTRAL GEORGIA

CITY           SKY/WX    TMP DP  RH WIND       PRES   REMARKS
AUGUSTA-BUSH   MOSUNNY   89  59  36 NW14      29.90F
AUGUSTA-DANIEL MOSUNNY   88  61  40 VRB7      29.93S
COLUMBUS       SUNNY     89  55  31 W10       29.96F
MACON          SUNNY     89  56  32 NW13      29.95F
ROBINS AFB     SUNNY     88  59  37 NW8       29.94F


CITY           SKY/WX    TMP DP  RH WIND       PRES   REMARKS
LAGRANGE*      MOSUNNY   89  68  50 W10       29.99F HX  92
SYLVANIA*      MOSUNNY   88  66  48 W7        29.93S HX  90
MILLEDGEVILLE* MOSUNNY   88  64  45 W6        29.95S
$$

GAZ099>101-110>166-212100-
SOUTH GEORGIA

CITY           SKY/WX    TMP DP  RH WIND       PRES   REMARKS
SAVANNAH       MOSUNNY   88  62  41 NW12      29.92F
VALDOSTA       SUNNY     87  57  35 CALM      29.97F
ALMA           SUNNY     88  57  34 VRB6      29.96F
ST SIMONS      SUNNY     86  64  47 E9        29.95F
FT STEWART     SUNNY     89  59  36 SW6       29.92F
ALBANY         SUNNY     86  61  42 SW3       29.98F
HUNTER AFB     SUNNY     88  62  42 NW9       29.91F
MOODY AFB      SUNNY     85  61  43 NW6       29.98F
BRUNSWICK      SUNNY     88  55  33 W5        29.95F


CITY           SKY/WX    TMP DP  RH WIND       PRES   REMARKS
BAINBRIDGE*    SUNNY     90  63  40 CALM      29.98F HX  90
MOULTRIE*      SUNNY     86  55  35 CALM      29.99F
VIDALIA*       MOSUNNY   88  61  40 W6        29.95F
DOUGLAS*       SUNNY     90  52  27 NW5       29.98S
$$


USA.gov is the U.S. government's official web portal to all federal, state and local government web resources and services.